Location: Sungai Laei
(2.6000°N, 113.7167°E)
Time: 10:53:49
(UTC+00:00)

CZ-2C R/B - Pass Details

Date: 22 May 2022
Orbit: 381 x 548 km, 35.0° (Epoch: 06 July)

Event Time Altitude Azimuth Distance (km) Brightness Sun altitude
Exits shadow 21:24:48 12° 292° (WNW) 1,411 3.0 -12.4°
Maximum altitude 21:26:34 16° 326° (NNW) 1,222 3.0 -12.0°
Drops below altitude 10° 21:28:57 10° 7° (N) 1,591 4.1 -11.4°
Sets 21:31:47 0° 29° (NNE) 2,507 5.6 -10.8°
